OBJECT B

Satellite information

Favourite Embed

Satellite Type and Status

UNKNOWNIN ORBIT

Key statistics

Satellite OBJECT B at a glance.

Uptime

1382

Days in orbit

Revolutions

≈ 15.2

Per day

Orbit

LEO

Low Earth Orbit

Inclination

63.5

Latest

Satellite identification and parameters

Extended collection of information and parameters for OBJECT B.

Object identification

Identified? True

Debris? False

Object name: OBJECT B

International designator: 2022-023B

Object number (NORAD): 51947

Object ID (CCSDS): 51947

Country: PEOPLES REPUBLIC OF CHINA (PRC)

Current information (Y/N): Y

RCS size: LARGE

Orbital parameters

Period: 94.841 minutes

Inclination: 63.4712 deg

SMA: 6888.999 km

Apoapsis: 574.727 km

Periapsis: 447.001 km

RAAN: 171.9897 deg

Eccentricy: 0.0092703

Argument of periapsis: 347.2697 deg

Mean anomaly: 12.6074 deg

Mean motion: 15.18338369 rev/day

Mean motion (dot): 0.00011065 rev/day2

B* drag term: 0.0004885485 1/REarth

Two-line elements (TLE)

Creation date: Dec. 16, 2025, 2:19 a.m.

Reference frame: TEME

Reference center: EARTH

Epoch: Dec. 15, 2025, 11:21 p.m. UTC

TLE line 0: 0 OBJECT B

TLE line 1: 1 51947U 22023B 25349.97327105 .00011065 00000-0 48855-3 0 9998

TLE line 2: 2 51947 63.4712 171.9897 0092703 347.2697 12.6074 15.18338369209909

Live tracking on map

Real-time ground track for satellite OBJECT B.

In-orbit conjunctions

There are no conjunctions computed for OBJECT B, at the moment. Check back to stay up to date, as we update our databases every day.

Go to all conjunctions

Associated space launch

The first flight dedicated to the launch of the Internet constellation of GalaxySpace, a private company, planning the total deployment of more than 1000 satellites in earth orbit. The satellites broadcast in 5G, with a capacity of 10 Gb.

OBJECT B was lifted into orbit during the mission ‘Long March 2C | Yinhe-1 (x6)’, on board a Long March 2 space rocket.

The launch took place on March 5, 2022, 6:01 a.m. from Launch Complex 3 (LC-3/LA-1).

For more information about the launch, click the button.

Launch to space Long March 2C | Yinhe-1 (x6)
Long March 2C | Yinhe-1 (x6)

Agency: N/A

Status: Launch Successful

Launch date: March 5, 2022, 6:01 a.m. UTC

Rocket: Long March 2

Launch pad: Launch Complex 3 (LC-3/LA-1)

Location: Xichang Satellite Launch Center, People's Republic of China

...

Latest news about this satellite

News about space launch
Long March rocket deploys six Chinese internet satellites

Six demonstration satellites for a future Chinese broadband internet mega-constellation launched March 5 on a Long March 2C rocket.

News about space launch
China launches test satellites for broadband constellation

China  launched a set of commercial satellites Saturday for testing broadband services, on-orbit networking and integrating communications and remote sensing technologies.


Newsletter sign-up

Weekly statistics, charts and insights to help you stay on top of the space industry.